Regional Weather Roundup
Issued by NWS Newport/Morehead, NC

Current Version | Previous Version | Text Only | Print | Product List | Glossary On
Versions: 1 2 3 4 5 6 7 8 9 10 11 12 13 14 15 16 17 18 19 20 21 22 23 24 25 26 27 28 29 30 31 32 33 34 35 36 37 38 39 40 41 42 43 44 45 46 47 48 49 50
000
ASUS42 KMHX 212226
RWRMHX
WEATHER ROUNDUP FOR EASTERN NORTH CAROLINA
NATIONAL WEATHER SERVICE NEWPORT/MOREHEAD CITY NC
600 PM EDT MON AUG 21 2017

NOTE: "FAIR" INDICATES FEW OR NO CLOUDS BELOW 12,000 FEET
WITH NO SIGNIFICANT WEATHER AND/OR OBSTRUCTIONS TO VISIBILITY

NCZ015>017-031-032-045>047-102-103-212300-
NORTH COAST

CITY           SKY/WX    TMP DP  RH WIND       PRES   REMARKS
EDENTON        SUNNY     88  73  61 CALM      30.16S
ELIZABETH CITY SUNNY     86  77  74 SE8       30.16S
KITTY HAWK     CLEAR     82  75  79 CALM      30.16S
MANTEO         MOSUNNY   82  76  80 SE7       30.17S

$$

NCZ045>047-081-094-103-104-212300-
CENTRAL COAST

CITY           SKY/WX    TMP DP  RH WIND       PRES   REMARKS
FRISCO         SUNNY     86  78  77 S6        30.17S

$$

NCZ095-097-098-100-101-212300-
SOUTHERN COAST

CITY           SKY/WX    TMP DP  RH WIND       PRES   REMARKS
BEAUFORT       SUNNY     84  77  79 S6        30.16S
CEDAR ISLAND   NOT AVBL
JACKSONVILLE   SUNNY     86  76  71 SE8       30.15S
PINEY ISLAND   CLEAR    N/A N/A N/A SE9       30.15F
WILMINGTON     MOSUNNY   86  75  69 VRB6      30.16S


$$

NCZ011>013-027>030-043-044-078>080-089-090>093-098-212300-
COASTAL PLAIN

CITY           SKY/WX    TMP DP  RH WIND       PRES   REMARKS
AHOSKIE          N/A     84  72  66 S6        30.15F
CLINTON        SUNNY     90  75  61 SE3       30.15F
ELIZABETHTOWN  NOT AVBL
GOLDSBORO      MOSUNNY   91  74  57 SE6       30.14F HX 100
GREENVILLE     SUNNY     88  72  58 SE6       30.16F
HAVELOCK       SUNNY     87  73  62 S8        30.17S
KENANSVILLE    SUNNY     88  73  62 SE7       30.15F
KINSTON        MOSUNNY   88  72  58 MISG      30.16S
NEW BERN       SUNNY     86  76  71 SE5       30.17S
RICHLANDS      SUNNY     87  75  67 VRB6      30.16S
ROCKY MOUNT    SUNNY     87  74  64 VRB3      30.15F
WASHINGTON     SUNNY     86  74  66 SE7       30.16S
WHITEVILLE     MOSUNNY   87  75  67 S8        30.15S

$$

AMZ130-135-150-152-154-156-158-170-250-252-270-ANZ085-086-088-633-658-670-212300-
MARINE OBSERVATIONS

STATION/POSITION TIME  TEMP    WIND        PRES    WAVE   SWELL
                       AIR SEA DIR/SP/G            HT/PER HT/PER
                 (UTC) (F)     (DEG/KT/KT) (MB)    (FT/S) (FT/S)
CHESAPEAKE LIGHT NOT AVBL
64 E VA BEACH    2150   79 80   90/  4/  4 1022.0    2/ 8   2/ 8
DUCK             2200   85 77  110/  6/  6 1021.1
2 E DUCK         2130      83                N/A     2/ 8
OREGON INLET     2200   83 84  110/  7/  9 1021.5
13E OREGON INLT  2148      81                N/A     2/ 8   2/ 8
HATTERAS CG      2200   83 81  180/  4/  5 1021.5
DIAMOND BUOY     2150   83 85  160/  4/  6 1021.4    2/ 8   2/ 8
CAPE LOOKOUT     2200   81     120/  3/  4 1021.0
BEAUFORT LAB     2200   84 81  180/  5/  6 1020.8
30 SE NEW RVR IN 2208   81 84  170/  6/  8 1021.3
30 SE NEW RVR IN 2143      84                N/A     3/10   2/11
27 SE WRIGHTSVLE 2208   83 84  140/  8/ 10 1021.2
5 SE WRIGHTSVLE  2208   83 84  140/  8/ 12 1021.1
225 S CAPE HAT   2150   83 85  140/  6/  6 1021.0    3/ 9   3/ 9
41 SE CHARLESTON 2210   82 85  160/ 12/ 16 1020.6

$$




USA.gov is the U.S. government's official web portal to all federal, state and local government web resources and services.